カタログに戻る

STARLINK-36120

運用中通信VLEO
NORAD 67016·PAYLOAD·🇺🇸 United States

打ち上げ Dec 10, 2025 から Vandenberg Space Force Base

Loading…

次のパス (今後24時間)

TLE

最新Source: CelesTrak SupGP

元期: Sep 15, 2026, 02:37 UTC

1 67016C 25293P   26258.10951389  .00065747  00000+0  55102-2 0  2581
2 67016  70.0016 336.8851 0003604 267.3349 339.3761 14.98293725    10

AllMySatでSTARLINK-36120をリアルタイム追跡

Download on the App Store